K9DC Weather Reports


time (UTC)temp
C
wind
direction
speed
KPH
gust
KPH
rain 1hr
cm
rain 24hr
cm
rain mn
cm
humidity
%
barometer
mb
20260508174003 18 244 9.7 27.4 0.00 0.00 0.00 49 1010.4
20260508173503 18 237 9.7 27.4 0.00 0.00 0.00 47 1010.5
20260508173004 19 245 11.3 25.7 0.00 0.00 0.00 46 1010.6
20260508172504 19 236 11.3 25.7 0.00 0.00 0.00 45 1010.6
20260508172003 20 217 11.3 25.7 0.00 0.00 0.00 46 1010.7
20260508171503 20 220 12.9 29.0 0.00 0.00 0.00 45 1010.6
20260508171005 20 222 12.9 29.0 0.00 0.00 0.00 45 1010.6
20260508170504 20 216 11.3 25.7 0.00 0.00 0.00 45 1010.7
20260508170003 20 209 11.3 25.7 0.00 0.00 0.00 49 1010.7
20260508165504 20 215 9.7 24.1 0.00 0.00 0.00 48 1010.8
20260508165004 20 229 11.3 29.0 0.00 0.00 0.00 51 1010.9
20260508164504 19 230 12.9 29.0 0.00 0.00 0.00 50 1010.9
20260508164004 18 227 11.3 24.1 0.00 0.00 0.00 49 1011.0
20260508163503 18 222 11.3 25.7 0.00 0.00 0.00 47 1011.2
20260508163003 18 229 9.7 25.7 0.00 0.00 0.00 48 1011.2
20260508162503 18 246 14.5 27.4 0.00 0.00 0.00 47 1011.3
20260508162003 18 253 14.5 27.4 0.00 0.00 0.00 45 1011.4
20260508161504 18 254 14.5 35.4 0.00 0.00 0.00 47 1011.5
20260508161003 18 252 16.1 35.4 0.00 0.00 0.00 47 1011.4
20260508160503 18 245 16.1 32.2 0.00 0.00 0.00 46 1011.5
20260508160003 18 238 14.5 32.2 0.00 0.00 0.00 49 1011.5
20260508155504 18 242 16.1 30.6 0.00 0.00 0.00 48 1011.6
20260508155004 18 243 14.5 30.6 0.00 0.00 0.00 47 1011.6
20260508154503 18 246 12.9 37.0 0.00 0.00 0.00 48 1011.6
20260508154003 18 247 16.1 37.0 0.00 0.00 0.00 48 1011.5
20260508153503 18 247 14.5 30.6 0.00 0.00 0.00 49 1011.5
20260508153004 18 238 12.9 27.4 0.00 0.00 0.00 49 1011.6
20260508152504 17 231 11.3 24.1 0.00 0.00 0.00 48 1011.7
20260508152004 17 238 8.0 24.1 0.00 0.00 0.00 48 1011.7
20260508151503 18 246 9.7 32.2 0.00 0.00 0.00 49 1011.7
20260508151003 18 253 12.9 32.2 0.00 0.00 0.00 48 1011.7
20260508150503 18 257 12.9 32.2 0.00 0.00 0.00 49 1011.7
20260508150004 18 256 12.9 32.2 0.00 0.00 0.00 47 1011.7
20260508145503 18 253 11.3 25.7 0.00 0.00 0.00 48 1011.7
20260508145003 17 248 11.3 27.4 0.00 0.00 0.00 51 1011.8
20260508144505 17 249 12.9 27.4 0.00 0.00 0.00 51 1011.8
20260508144003 17 256 14.5 29.0 0.00 0.00 0.00 50 1011.9
20260508143503 17 257 17.7 33.8 0.00 0.00 0.00 50 1012.0
20260508143004 17 255 16.1 33.8 0.00 0.00 0.00 50 1012.1
20260508142504 16 261 11.3 29.0 0.00 0.00 0.00 51 1012.2
20260508142005 16 264 11.3 25.7 0.00 0.00 0.00 52 1012.2
20260508141503 16 264 9.7 25.7 0.00 0.00 0.00 53 1012.2
20260508141004 16 250 6.4 20.9 0.00 0.00 0.00 55 1012.3
20260508140503 15 239 9.7 20.9 0.00 0.00 0.00 54 1012.3
20260508140004 15 261 9.7 22.5 0.00 0.00 0.00 54 1012.3
20260508135505 15 266 8.0 22.5 0.00 0.00 0.00 55 1012.4
20260508135005 15 251 11.3 25.7 0.00 0.00 0.00 54 1012.5
20260508134503 15 250 11.3 25.7 0.00 0.00 0.00 53 1012.4
20260508134003 14 256 9.7 20.9 0.00 0.00 0.00 55 1012.4
20260508133504 14 251 9.7 24.1 0.00 0.00 0.00 56 1012.5
20260508133003 14 256 11.3 24.1 0.00 0.00 0.00 56 1012.5
20260508132504 13 264 11.3 27.4 0.00 0.00 0.00 56 1012.6
20260508132004 13 263 8.0 27.4 0.00 0.00 0.00 57 1012.6
20260508131503 13 265 8.0 19.3 0.00 0.00 0.00 58 1012.7
20260508131004 13 258 8.0 20.9 0.00 0.00 0.00 58 1012.7
20260508130504 13 251 9.7 25.7 0.00 0.00 0.00 58 1012.6
20260508130005 12 259 8.0 25.7 0.00 0.00 0.00 58 1012.6
20260508125504 12 262 6.4 17.7 0.00 0.00 0.00 60 1012.6
20260508125004 12 252 6.4 17.7 0.00 0.00 0.00 61 1012.6
20260508124504 12 252 8.0 17.7 0.00 0.00 0.00 60 1012.6
20260508124003 12 247 11.3 22.5 0.00 0.00 0.00 60 1012.4
20260508123504 11 239 9.7 22.5 0.00 0.00 0.00 61 1012.5
20260508123004 11 230 8.0 24.1 0.00 0.00 0.00 62 1012.3
20260508122504 11 243 9.7 24.1 0.00 0.00 0.00 63 1012.2
20260508122003 11 255 11.3 32.2 0.00 0.00 0.00 63 1012.3
20260508121504 10 248 8.0 32.2 0.00 0.00 0.00 64 1012.5
20260508121004 10 233 8.0 19.3 0.00 0.00 0.00 65 1012.4
20260508120505 10 233 8.0 19.3 0.00 0.00 0.00 65 1012.4
20260508120003 10 233 8.0 19.3 0.00 0.00 0.00 66 1012.3
20260508115505 10 233 8.0 19.3 0.00 0.00 0.00 67 1012.4
20260508115005 9 233 8.0 19.3 0.00 0.00 0.00 67 1012.4
20260508114504 9 233 8.0 19.3 0.00 0.00 0.00 67 1012.3
20260508114003 9 233 8.0 19.3 0.00 0.00 0.00 67 1012.3
20260508113504 9 233 8.0 19.3 0.00 0.00 0.00 67 1012.2
20260508113005 8 233 8.0 19.3 0.00 0.00 0.00 67 1012.3
20260508112504 8 233 8.0 19.3 0.00 0.00 0.00 67 1012.2
20260508112003 8 233 8.0 19.3 0.00 0.00 0.00 68 1012.2
20260508111503 8 233 8.0 19.3 0.00 0.00 0.00 68 1012.2
20260508111003 8 233 8.0 19.3 0.00 0.00 0.00 68 1012.2
20260508110505 8 233 8.0 19.3 0.00 0.00 0.00 68 1012.2
20260508110004 8 233 8.0 19.3 0.00 0.00 0.00 68 1012.2
20260508105503 8 233 8.0 19.3 0.00 0.00 0.00 68 1012.1
20260508105004 8 233 8.0 19.3 0.00 0.00 0.00 68 1012.1
20260508104504 8 233 8.0 19.3 0.00 0.00 0.00 68 1012.0
20260508104003 8 233 8.0 19.3 0.00 0.00 0.00 67 1012.0
20260508103504 8 233 8.0 19.3 0.00 0.00 0.00 67 1012.0
20260508103004 9 233 8.0 19.3 0.00 0.00 0.00 67 1012.0
20260508102504 9 233 8.0 19.3 0.00 0.00 0.00 66 1012.0
20260508102005 9 233 8.0 19.3 0.00 0.00 0.00 66 1012.0
20260508101505 9 233 8.0 19.3 0.00 0.00 0.00 66 1012.0
20260508101004 10 233 8.0 19.3 0.00 0.00 0.00 66 1012.0
20260508100503 10 233 8.0 19.3 0.00 0.00 0.00 65 1011.9
20260508100003 10 233 8.0 19.3 0.00 0.00 0.00 65 1012.1
20260508095503 10 233 8.0 19.3 0.00 0.00 0.00 64 1012.1
20260508095006 10 233 8.0 19.3 0.00 0.00 0.00 64 1012.0
20260508094505 10 233 8.0 19.3 0.00 0.00 0.00 63 1012.1
20260508094004 10 233 8.0 19.3 0.00 0.00 0.00 63 1012.0
20260508093503 10 233 8.0 19.3 0.00 0.00 0.00 62 1012.1
20260508093003 10 233 8.0 19.3 0.00 0.00 0.00 62 1012.0
20260508092504 11 233 8.0 19.3 0.00 0.00 0.00 61 1012.1
20260508092005 11 233 8.0 19.3 0.00 0.00 0.00 61 1012.1
20260508091504 11 233 8.0 19.3 0.00 0.00 0.00 60 1012.1
20260508091003 11 233 8.0 19.3 0.00 0.00 0.00 60 1012.0
20260508090505 11 233 8.0 19.3 0.00 0.00 0.00 60 1012.0
20260508090003 11 233 8.0 19.3 0.00 0.00 0.00 60 1012.1
20260508085503 11 233 8.0 19.3 0.00 0.00 0.00 60 1012.0
20260508085005 11 233 8.0 19.3 0.00 0.00 0.00 60 1012.1
20260508084505 11 233 8.0 19.3 0.00 0.00 0.00 60 1012.3
20260508084003 11 233 8.0 19.3 0.00 0.00 0.00 60 1012.3
20260508083505 11 233 8.0 19.3 0.00 0.00 0.00 60 1012.3
20260508083003 11 233 8.0 19.3 0.00 0.00 0.00 60 1012.3
20260508082503 11 233 8.0 19.3 0.00 0.00 0.00 60 1012.4
20260508082004 11 233 8.0 19.3 0.00 0.00 0.00 59 1012.3
20260508081504 11 233 8.0 19.3 0.00 0.00 0.00 60 1012.4
20260508081003 11 233 8.0 19.3 0.00 0.00 0.00 59 1012.5
20260508080503 12 233 8.0 19.3 0.00 0.00 0.00 59 1012.6
20260508080003 12 233 8.0 19.3 0.00 0.00 0.00 59 1012.7
20260508075503 12 233 8.0 19.3 0.00 0.00 0.00 59 1012.7
20260508075003 12 233 8.0 19.3 0.00 0.00 0.00 59 1012.7
20260508074504 12 233 8.0 19.3 0.00 0.00 0.00 59 1012.8
20260508074004 12 233 8.0 19.3 0.00 0.00 0.00 58 1012.7
20260508073503 12 233 8.0 19.3 0.00 0.00 0.00 58 1012.6
20260508073003 12 233 8.0 19.3 0.00 0.00 0.00 58 1012.5
20260508072503 12 233 8.0 19.3 0.00 0.00 0.00 57 1012.6
20260508072004 12 233 8.0 19.3 0.00 0.00 0.00 56 1012.7
20260508071504 11 233 8.0 19.3 0.00 0.00 0.00 57 1012.6
20260508071003 11 233 8.0 19.3 0.00 0.00 0.00 57 1012.7
20260508070503 11 233 8.0 19.3 0.00 0.00 0.00 57 1012.7
20260508070003 11 233 8.0 19.3 0.00 0.00 0.00 57 1012.6
20260508065504 11 233 8.0 19.3 0.00 0.00 0.00 57 1012.6
20260508065005 11 233 8.0 19.3 0.00 0.00 0.00 59 1012.6
20260508064504 11 233 8.0 19.3 0.00 0.00 0.00 59 1012.7
20260508064003 11 239 8.0 19.3 0.00 0.00 0.00 59 1012.8
20260508063503 10 241 8.0 19.3 0.00 0.00 0.00 60 1012.9
20260508063003 10 243 4.8 19.3 0.00 0.00 0.00 63 1012.9
20260508062504 10 238 6.4 19.3 0.00 0.00 0.00 63 1012.9
20260508062004 10 239 6.4 19.3 0.00 0.00 0.00 63 1013.0
20260508061503 10 246 4.8 14.5 0.00 0.00 0.00 65 1013.0
20260508061003 10 245 4.8 12.9 0.00 0.00 0.00 65 1013.0
20260508060503 10 241 3.2 9.7 0.00 0.00 0.00 66 1013.0
20260508060003 10 241 3.2 8.0 0.00 0.00 0.00 67 1013.0
20260508055503 10 241 4.8 9.7 0.00 0.00 0.00 67 1012.9
20260508055004 10 241 4.8 11.3 0.00 0.00 0.00 69 1012.9
20260508054504 10 237 4.8 11.3 0.00 0.00 0.00 69 1012.9
20260508054005 10 231 3.2 9.7 0.00 0.00 0.00 70 1012.9
20260508053503 10 232 3.2 9.7 0.00 0.00 0.00 71 1012.9
20260508053003 10 233 3.2 8.0 0.00 0.00 0.00 71 1012.9
20260508052504 10 232 3.2 9.7 0.00 0.00 0.00 71 1012.8
20260508052004 10 232 4.8 9.7 0.00 0.00 0.00 71 1012.8
20260508051504 10 235 4.8 9.7 0.00 0.00 0.00 71 1012.8
20260508051003 10 239 3.2 12.9 0.00 0.00 0.00 72 1012.8
20260508050503 10 243 3.2 12.9 0.00 0.00 0.00 72 1012.9
20260508050006 10 239 3.2 9.7 0.00 0.00 0.00 72 1012.9
20260508045503 10 233 4.8 9.7 0.00 0.00 0.00 72 1013.0
20260508045003 10 228 3.2 8.0 0.00 0.00 0.00 72 1013.0
20260508044504 10 227 4.8 9.7 0.00 0.00 0.00 72 1012.9
20260508044004 10 226 4.8 9.7 0.00 0.00 0.00 72 1012.8
20260508043504 10 224 3.2 9.7 0.00 0.00 0.00 72 1012.9
20260508043005 10 224 3.2 9.7 0.00 0.00 0.00 73 1013.0
20260508042503 10 224 4.8 11.3 0.00 0.00 0.00 73 1013.0
20260508042004 10 229 4.8 12.9 0.00 0.00 0.00 73 1012.9
20260508041504 10 238 4.8 12.9 0.00 0.00 0.00 74 1012.8
20260508041004 10 242 4.8 9.7 0.00 0.00 0.00 74 1012.9
20260508040504 10 241 3.2 9.7 0.00 0.00 0.00 75 1012.9
20260508040003 10 241 3.2 9.7 0.00 0.00 0.00 75 1012.9
20260508035504 10 240 3.2 9.7 0.00 0.00 0.00 75 1012.8
20260508035003 10 241 3.2 9.7 0.00 0.00 0.00 75 1012.9
20260508034504 10 243 4.8 9.7 0.00 0.00 0.00 76 1012.8
20260508034003 10 241 4.8 11.3 0.00 0.00 0.00 76 1012.8
20260508033505 10 237 4.8 11.3 0.00 0.00 0.00 76 1012.8
20260508033005 10 238 4.8 9.7 0.00 0.00 0.00 76 1012.9
20260508032503 10 243 4.8 9.7 0.00 0.00 0.00 76 1012.9
20260508032004 10 246 3.2 9.7 0.00 0.00 0.00 76 1012.9
20260508031504 10 246 3.2 9.7 0.00 0.00 0.00 75 1013.0
20260508031003 9 245 4.8 12.9 0.00 0.00 0.00 75 1013.1
20260508030503 9 245 4.8 12.9 0.00 0.00 0.00 74 1013.0
20260508030005 9 245 4.8 9.7 0.00 0.00 0.00 74 1013.0
20260508025503 9 247 4.8 9.7 0.00 0.00 0.00 74 1013.0
20260508025004 10 250 4.8 9.7 0.00 0.00 0.00 74 1013.0
20260508024504 10 252 4.8 8.0 0.00 0.00 0.00 74 1013.0
20260508024003 10 252 3.2 9.7 0.00 0.00 0.00 74 1012.9
20260508023503 10 252 4.8 9.7 0.00 0.00 0.00 74 1012.9
20260508023004 10 259 4.8 9.7 0.00 0.00 0.00 73 1012.8
20260508022504 10 271 3.2 8.0 0.00 0.00 0.00 73 1012.8
20260508022005 10 281 3.2 6.4 0.00 0.00 0.00 74 1012.8
20260508021503 10 281 3.2 6.4 0.00 0.00 0.00 73 1012.7
20260508021003 10 281 3.2 6.4 0.00 0.00 0.00 73 1012.7
20260508020504 10 281 3.2 6.4 0.00 0.00 0.00 72 1012.8
20260508020004 10 298 3.2 6.4 0.00 0.00 0.00 72 1012.8
20260508015504 10 316 3.2 6.4 0.00 0.00 0.00 72 1012.6
20260508015004 10 321 3.2 4.8 0.00 0.00 0.00 71 1012.6
20260508014504 10 321 1.6 6.4 0.00 0.00 0.00 70 1012.6
20260508014003 10 321 1.6 6.4 0.00 0.00 0.00 70 1012.5
20260508013504 11 321 1.6 4.8 0.00 0.00 0.00 69 1012.5
20260508013004 11 320 0.0 4.8 0.00 0.00 0.00 68 1012.4
20260508012503 11 321 1.6 6.4 0.00 0.00 0.00 68 1012.3
20260508012004 11 321 1.6 6.4 0.00 0.00 0.00 67 1012.4
20260508011503 11 321 1.6 4.8 0.00 0.00 0.00 66 1012.5
20260508011004 11 321 1.6 4.8 0.00 0.00 0.00 65 1012.4
20260508010504 11 321 1.6 4.8 0.00 0.00 0.00 65 1012.4
20260508010004 12 320 0.0 3.2 0.00 0.00 0.00 64 1012.5
20260508005503 12 321 1.6 3.2 0.00 0.00 0.00 64 1012.6
20260508005004 12 321 0.0 3.2 0.00 0.00 0.00 63 1012.5
20260508004504 12 320 0.0 3.2 0.00 0.00 0.00 63 1012.5
20260508004005 12 321 1.6 6.4 0.00 0.00 0.00 63 1012.7
20260508003504 12 321 1.6 6.4 0.00 0.00 0.00 63 1012.8
20260508003004 12 321 1.6 6.4 0.00 0.00 0.00 64 1012.9
20260508002503 12 321 1.6 6.4 0.00 0.00 0.00 63 1012.8
20260508002003 12 321 1.6 6.4 0.00 0.00 0.00 62 1012.9
20260508001505 12 321 0.0 4.8 0.00 0.00 0.00 62 1012.9
20260508001003 12 321 1.6 6.4 0.00 0.00 0.00 62 1012.8
20260508000503 12 321 1.6 6.4 0.00 0.00 0.00 62 1012.8
20260508000003 12 321 1.6 6.4 0.00 0.00 0.00 61 1012.9
20260507235504 12 321 1.6 6.4 0.00 0.00 0.00 61 1013.0
20260507235003 12 321 1.6 4.8 0.00 0.00 0.00 62 1012.9
20260507234503 12 324 1.6 12.9 0.00 0.00 0.00 61 1012.9
20260507234003 12 325 1.6 12.9 0.00 0.00 0.00 61 1013.0
20260507233505 12 330 0.0 4.8 0.00 0.00 0.00 61 1013.0
20260507233004 12 325 1.6 16.1 0.00 0.00 0.00 61 1012.9
20260507232504 12 325 4.8 16.1 0.00 0.00 0.00 61 1012.9
20260507232003 12 324 4.8 16.1 0.00 0.00 0.00 60 1013.1
20260507231503 13 317 6.4 25.7 0.00 0.00 0.00 59 1013.3
20260507231004 13 316 6.4 25.7 0.00 0.00 0.00 57 1013.3
20260507230504 13 321 6.4 32.2 0.00 0.00 0.00 55 1013.3
20260507230004 14 312 9.7 32.2 0.00 0.00 0.00 50 1013.3
20260507225504 15 281 14.5 38.6 0.00 0.00 0.00 43 1013.2
20260507225004 15 272 16.1 45.1 0.00 0.00 0.00 42 1013.1
20260507224505 15 289 16.1 45.1 0.00 0.00 0.00 37 1013.0
20260507224003 16 292 9.7 30.6 0.00 0.00 0.00 36 1012.8
20260507223504 16 271 8.0 17.7 0.00 0.00 0.00 36 1012.8
20260507223005 16 268 8.0 17.7 0.00 0.00 0.00 33 1012.6
20260507222505 16 281 9.7 22.5 0.00 0.00 0.00 35 1012.6
20260507222003 16 281 11.3 22.5 0.00 0.00 0.00 33 1012.5
20260507221504 16 273 12.9 25.7 0.00 0.00 0.00 32 1012.4
20260507221005 16 271 12.9 25.7 0.00 0.00 0.00 32 1012.3
20260507220503 16 253 9.7 30.6 0.00 0.00 0.00 33 1012.3
20260507220003 16 237 6.4 30.6 0.00 0.00 0.00 34 1012.3
20260507215504 16 247 6.4 17.7 0.00 0.00 0.00 35 1012.3
20260507215003 16 247 8.0 17.7 0.00 0.00 0.00 31 1012.3
20260507214503 16 252 8.0 19.3 0.00 0.00 0.00 31 1012.3
20260507214005 17 268 8.0 19.3 0.00 0.00 0.00 31 1012.2
20260507213503 17 284 8.0 19.3 0.00 0.00 0.00 32 1012.3
20260507213004 17 270 12.9 27.4 0.00 0.00 0.00 31 1012.3
20260507212504 17 261 14.5 27.4 0.00 0.00 0.00 31 1012.2
20260507212003 17 264 11.3 25.7 0.00 0.00 0.00 32 1012.3
20260507211503 17 262 11.3 25.7 0.00 0.00 0.00 31 1012.3
20260507211003 17 257 11.3 27.4 0.00 0.00 0.00 30 1012.4
20260507210504 17 263 12.9 27.4 0.00 0.00 0.00 29 1012.4
20260507210004 18 264 9.7 27.4 0.00 0.00 0.00 28 1012.4
20260507205503 18 244 9.7 22.5 0.00 0.03 0.00 30 1012.4
20260507205004 18 244 6.4 22.5 0.00 0.03 0.00 31 1012.4
20260507204504 17 276 6.4 14.5 0.00 0.03 0.00 34 1012.5
20260507204003 17 265 9.7 17.7 0.00 0.03 0.00 34 1012.5
20260507203503 17 265 9.7 24.1 0.00 0.03 0.00 32 1012.7
20260507203004 17 275 9.7 27.4 0.00 0.03 0.00 32 1012.7
20260507202504 17 279 8.0 27.4 0.00 0.03 0.00 33 1012.8
20260507202004 17 268 6.4 17.7 0.00 0.03 0.00 31 1012.9
20260507201503 17 248 4.8 16.1 0.00 0.03 0.00 31 1012.9
20260507201003 17 256 6.4 16.1 0.00 0.03 0.00 33 1013.0
20260507200504 17 255 9.7 22.5 0.00 0.03 0.00 37 1013.1
20260507200004 17 256 8.0 22.5 0.00 0.03 0.00 33 1013.2
20260507195503 17 275 6.4 20.9 0.00 0.03 0.00 37 1013.2
20260507195003 17 272 3.2 20.9 0.00 0.03 0.00 33 1013.3
20260507194505 16 268 4.8 16.1 0.00 0.03 0.00 34 1013.3
20260507194004 16 274 8.0 16.1 0.00 0.03 0.00 33 1013.4
20260507193503 17 295 9.7 22.5 0.00 0.03 0.00 33 1013.5
20260507193003 17 281 9.7 24.1 0.00 0.03 0.00 32 1013.5
20260507192503 17 262 8.0 24.1 0.00 0.03 0.00 35 1013.6
20260507192004 17 267 6.4 14.5 0.00 0.03 0.00 33 1013.5
20260507191503 17 276 8.0 17.7 0.00 0.03 0.00 33 1013.6
20260507191003 17 267 9.7 22.5 0.00 0.03 0.00 36 1013.8
20260507190503 17 269 8.0 22.5 0.00 0.03 0.00 35 1013.9
20260507190006 17 279 6.4 16.1 0.00 0.03 0.00 35 1013.9
20260507185503 16 289 8.0 24.1 0.00 0.03 0.00 35 1014.0
20260507185004 16 296 9.7 24.1 0.00 0.03 0.00 36 1014.0
20260507184504 16 300 8.0 20.9 0.00 0.03 0.00 35 1014.0
20260507184004 16 279 6.4 20.9 0.00 0.03 0.00 41 1014.0
20260507183503 16 270 9.7 19.3 0.00 0.03 0.00 40 1014.0
20260507183004 16 264 12.9 24.1 0.00 0.03 0.00 37 1013.9
20260507182504 16 263 9.7 24.1 0.00 0.03 0.00 36 1014.0
20260507182004 16 304 6.4 17.7 0.00 0.03 0.00 38 1014.2
20260507181503 16 302 9.7 22.5 0.00 0.03 0.00 37 1014.1
20260507181003 16 300 6.4 22.5 0.00 0.03 0.00 38 1014.1
20260507180505 16 308 3.2 12.9 0.00 0.03 0.00 37 1014.2
20260507180004 16 317 3.2 12.9 0.00 0.03 0.00 35 1014.1
20260507175504 16 313 4.8 16.1 0.00 0.03 0.00 38 1014.3
20260507175004 16 291 9.7 24.1 0.00 0.03 0.00 37 1014.6
20260507174504 16 289 9.7 25.7 0.00 0.03 0.00 38 1014.6